Weather WX

World > North America > United States > Ohio

Berwick, Ohio Regional Weather

Lat: 41.03N, Lon: 83.3W
Wx Zone: OHZ018
Feedback

Berwick, OH Regional Weather

Expires:201907160700;;715095
ASUS41 KCLE 160612
RWRCLE
OHIO REGIONAL WEATHER ROUNDUP
NATIONAL WEATHER SERVICE WILMINGTON, OH
200 AM EDT TUE JUL 16 2019

NOTE: "FAIR" INDICATES FEW OR NO CLOUDS BELOW 12,000 FEET WITH NO
SIGNIFICANT WEATHER AND/OR OBSTRUCTIONS TO VISIBILITY.


OHZ001>008-015>018-024>027-034-035-043-044-160700-
   NORTHWEST OHIO
  
CITY           SKY/WX    TMP DP  RH WIND       PRES   REMARKS
DEFIANCE       FAIR      74  68  81 CALM      30.04F                  
FINDLAY        FAIR      76  72  87 CALM      30.04F                  
TOLEDO EXPRESS FAIR      73  69  87 CALM      30.03F                  
TOLEDO EXEC    FAIR      75  70  84 S3        30.04F                  
LIMA           FAIR      74  70  87 S8        30.07F                  
$$
 

SKY/WX - Weather  TMP - Temperature  DP - Dew Point  RH - Relative Humidity
WIND - Wind Direction/Speed PRES - Barometric Pressure VSB - Visibility
WCI - Wind Chill Index E13G22 Wind - East Wind 13 mph/Gusts of 22 mph